QPF
0.01 0.01 0.02 0.02 0.03 0.02 0.01 0.01 0.00 0.00 0.00 0.01 0.01 0.01 0.01 0.01 0.02 0.04 0.03 0.01 0.00 0.00 0.01 0.03 0.05 0.06 0.05 0.04 0.03 0.03 0.03 0.02 0.02 0.02 0.01 0.01 0.01 0.03 0.04 0.04 0.03 0.02 0.01 0.01 0.01 0.01 0.01 0.00 0.00
0.01 0.02 0.02 0.02 0.03 0.02 0.01 0.01 0.01 0.00 0.00 0.00 0.01 0.01 0.01 0.02 0.02 0.03 0.02 0.01 0.00 0.00 0.00 0.02 0.04 0.06 0.06 0.06 0.05 0.04 0.05 0.03 0.03 0.02 0.02 0.01 0.01 0.02 0.04 0.05 0.03 0.03 0.02 0.01 0.01 0.01 0.01 0.00 0.00
0.02 0.02 0.02 0.03 0.04 0.03 0.01 0.01 0.01 0.01 0.01 0.00 0.01 0.01 0.02 0.02 0.02 0.03 0.03 0.01 0.01 0.01 0.01 0.01 0.03 0.05 0.05 0.06 0.06 0.06 0.06 0.05 0.05 0.04 0.02 0.01 0.01 0.02 0.03 0.03 0.04 0.03 0.02 0.02 0.02 0.01 0.00 0.00 0.00
0.01 0.01 0.02 0.03 0.05 0.04 0.01 0.01 0.01 0.01 0.01 0.01 0.01 0.02 0.02 0.01 0.02 0.03 0.04 0.03 0.03 0.04 0.03 0.02 0.03 0.06 0.08 0.07 0.07 0.07 0.08 0.07 0.06 0.05 0.04 0.02 0.02 0.01 0.01 0.02 0.03 0.04 0.03 0.01 0.01 0.01 0.01 0.01 0.00
0.01 0.01 0.01 0.02 0.04 0.04 0.01 0.01 0.01 0.01 0.01 0.01 0.01 0.02 0.02 0.01 0.01 0.03 0.05 0.05 0.05 0.06 0.06 0.05 0.04 0.07 0.13 0.12 0.08 0.07 0.08 0.07 0.06 0.05 0.05 0.03 0.03 0.02 0.02 0.02 0.02 0.03 0.02 0.01 0.01 0.01 0.01 0.01 0.01
0.01 0.01 0.02 0.01 0.03 0.05 0.02 0.01 0.01 0.01 0.01 0.01 0.02 0.02 0.02 0.02 0.02 0.04 0.07 0.05 0.06 0.06 0.07 0.07 0.06 0.06 0.15 0.16 0.09 0.07 0.07 0.08 0.05 0.04 0.04 0.04 0.04 0.03 0.02 0.02 0.02 0.02 0.01 0.01 0.01 0.01 0.01 0.01 0.01
0.01 0.01 0.01 0.02 0.03 0.05 0.02 0.01 0.01 0.01 0.01 0.01 0.02 0.02 0.02 0.03 0.03 0.05 0.08 0.08 0.06 0.07 0.09 0.10 0.09 0.07 0.15 0.14 0.08 0.08 0.08 0.09 0.07 0.04 0.04 0.04 0.05 0.05 0.03 0.02 0.02 0.01 0.01 0.01 0.02 0.01 0.01 0.01 0.01
0.01 0.01 0.01 0.01 0.02 0.05 0.02 0.01 0.02 0.02 0.02 0.02 0.02 0.03 0.03 0.03 0.03 0.04 0.08 0.08 0.07 0.09 0.12 0.14 0.12 0.10 0.16 0.15 0.10 0.09 0.09 0.10 0.09 0.06 0.04 0.03 0.03 0.04 0.05 0.03 0.03 0.01 0.01 0.01 0.01 0.01 0.01 0.01 0.01
0.01 0.01 0.01 0.01 0.02 0.04 0.01 0.01 0.01 0.02 0.03 0.03 0.02 0.03 0.03 0.04 0.03 0.04 0.06 0.08 0.08 0.09 0.13 0.18 0.14 0.11 0.15 0.15 0.10 0.09 0.09 0.11 0.11 0.09 0.05 0.03 0.03 0.04 0.04 0.03 0.03 0.03 0.01 0.01 0.01 0.01 0.01 0.01 0.01
0.01 0.01 0.01 0.01 0.02 0.02 0.01 0.01 0.02 0.04 0.04 0.03 0.03 0.03 0.03 0.03 0.03 0.04 0.06 0.08 0.07 0.07 0.11 0.17 0.13 0.12 0.13 0.14 0.11 0.10 0.09 0.09 0.11 0.10 0.08 0.06 0.06 0.05 0.04 0.03 0.03 0.02 0.02 0.03 0.02 0.02 0.01 0.01 0.01
0.01 0.01 0.01 0.01 0.01 0.01 0.01 0.01 0.01 0.02 0.03 0.03 0.03 0.03 0.03 0.03 0.04 0.04 0.06 0.07 0.08 0.08 0.11 0.13 0.12 0.12 0.12 0.14 0.11 0.10 0.10 0.10 0.10 0.09 0.09 0.08 0.07 0.06 0.05 0.05 0.04 0.03 0.02 0.03 0.03 0.03 0.02 0.01 0.02
0.01 0.01 0.01 0.00 0.01 0.01 0.00 0.01 0.01 0.02 0.03 0.04 0.04 0.02 0.03 0.05 0.06 0.04 0.06 0.08 0.11 0.09 0.11 0.13 0.12 0.11 0.10 0.12 0.11 0.08 0.10 0.10 0.09 0.08 0.07 0.07 0.06 0.07 0.06 0.06 0.05 0.04 0.03 0.03 0.03 0.02 0.01 0.02 0.02
0.01 0.01 0.01 0.01 0.01 0.01 0.00 0.00 0.01 0.02 0.02 0.04 0.03 0.02 0.03 0.06 0.08 0.05 0.07 0.09 0.09 0.09 0.09 0.10 0.11 0.11 0.10 0.10 0.12 0.08 0.09 0.10 0.09 0.07 0.07 0.08 0.07 0.06 0.06 0.08 0.08 0.07 0.05 0.06 0.04 0.02 0.02 0.02 0.02
0.01 0.01 0.01 0.01 0.01 0.01 0.00 0.01 0.01 0.02 0.02 0.02 0.01 0.02 0.03 0.04 0.06 0.06 0.09 0.09 0.09 0.10 0.08 0.07 0.09 0.11 0.09 0.09 0.10 0.08 0.07 0.08 0.08 0.07 0.07 0.08 0.08 0.07 0.06 0.06 0.09 0.09 0.08 0.06 0.07 0.06 0.03 0.03 0.03
0.00 0.01 0.01 0.01 0.01 0.00 0.00 0.01 0.01 0.01 0.01 0.01 0.01 0.02 0.02 0.03 0.04 0.04 0.06 0.07 0.08 0.09 0.09 0.08 0.09 0.09 0.09 0.07 0.09 0.08 0.07 0.08 0.08 0.06 0.06 0.06 0.07 0.07 0.07 0.06 0.06 0.08 0.09 0.07 0.08 0.08 0.06 0.05 0.03
0.00 0.01 0.01 0.01 0.00 0.01 0.01 0.01 0.01 0.01 0.01 0.01 0.02 0.02 0.02 0.03 0.03 0.03 0.03 0.04 0.04 0.07 0.09 0.09 0.10 0.10 0.09 0.08 0.09 0.10 0.08 0.07 0.07 0.07 0.06 0.05 0.05 0.06 0.06 0.06 0.05 0.05 0.05 0.06 0.05 0.05 0.06 0.05 0.04
0.01 0.01 0.01 0.01 0.00 0.01 0.01 0.01 0.01 0.00 0.01 0.02 0.02 0.02 0.02 0.02 0.01 0.02 0.02 0.03 0.03 0.05 0.07 0.09 0.11 0.12 0.10 0.09 0.09 0.10 0.08 0.06 0.06 0.05 0.05 0.05 0.04 0.04 0.05 0.05 0.04 0.04 0.04 0.04 0.03 0.03 0.04 0.03 0.04
0.01 0.01 0.01 0.01 0.01 0.00 0.01 0.02 0.01 0.01 0.01 0.02 0.03 0.02 0.02 0.02 0.01 0.02 0.03 0.03 0.03 0.04 0.06 0.08 0.09 0.11 0.12 0.09 0.06 0.07 0.07 0.06 0.05 0.04 0.03 0.03 0.03 0.03 0.04 0.04 0.04 0.04 0.04 0.03 0.03 0.02 0.03 0.03 0.03
0.01 0.01 0.01 0.01 0.01 0.01 0.01 0.01 0.01 0.02 0.02 0.03 0.03 0.02 0.03 0.02 0.01 0.02 0.02 0.02 0.02 0.03 0.04 0.06 0.07 0.07 0.09 0.07 0.04 0.03 0.04 0.04 0.03 0.03 0.02 0.01 0.01 0.01 0.02 0.03 0.03 0.03 0.04 0.03 0.02 0.02 0.02 0.02 0.03
0.01 0.01 0.01 0.00 0.00 0.01 0.02 0.02 0.02 0.02 0.02 0.03 0.02 0.02 0.03 0.02 0.01 0.01 0.01 0.01 0.01 0.02 0.02 0.04 0.06 0.05 0.05 0.05 0.03 0.02 0.02 0.03 0.03 0.02 0.02 0.01 0.00 0.00 0.01 0.02 0.03 0.02 0.03 0.03 0.02 0.02 0.02 0.02 0.02
0.00 0.00 0.01 0.01 0.01 0.02 0.02 0.03 0.02 0.01 0.01 0.02 0.02 0.02 0.02 0.01 0.01 0.01 0.01 0.01 0.01 0.01 0.01 0.02 0.05 0.05 0.04 0.03 0.02 0.01 0.01 0.01 0.02 0.02 0.02 0.01 0.00 0.00 0.00 0.01 0.02 0.02 0.02 0.02 0.02 0.01 0.02 0.02 0.02
0.00 0.00 0.00 0.01 0.02 0.02 0.01 0.03 0.02 0.01 0.01 0.01 0.02 0.02 0.01 0.01 0.01 0.01 0.01 0.01 0.00 0.00 0.01 0.01 0.04 0.04 0.04 0.03 0.01 0.01 0.00 0.00 0.01 0.01 0.01 0.01 0.00 0.00 0.00 0.00 0.01 0.02 0.01 0.01 0.02 0.01 0.01 0.01 0.01
0.01 0.01 0.00 0.00 0.01 0.02 0.01 0.02 0.02 0.01 0.01 0.01 0.01 0.02 0.02 0.02 0.01 0.01 0.01 0.01 0.00 0.00 0.01 0.01 0.03 0.04 0.04 0.04 0.02 0.01 0.01 0.00 0.00 0.01 0.01 0.00 0.00 0.00 0.00 0.00 0.01 0.01 0.01 0.01 0.01 0.01 0.01 0.01 0.01
0.01 0.01 0.00 0.00 0.02 0.02 0.01 0.01 0.01 0.01 0.01 0.01 0.02 0.02 0.02 0.02 0.01 0.01 0.01 0.01 0.01 0.00 0.01 0.01 0.03 0.03 0.03 0.04 0.04 0.02 0.01 0.01 0.00 0.00 0.00 0.00 0.00 0.00 0.00 0.00 0.00 0.01 0.01 0.01 0.01 0.01 0.01 0.01 0.01
0.00 0.01 0.01 0.01 0.02 0.01 0.00 0.00 0.01 0.01 0.01 0.01 0.01 0.01 0.01 0.02 0.01 0.01 0.01 0.01 0.01 0.01 0.01 0.01 0.02 0.03 0.03 0.02 0.02 0.01 0.01 0.01 0.00 0.00 0.00 0.00 0.00 0.00 0.00 0.00 0.00 0.00 0.01 0.01 0.01 0.00 0.01 0.01 0.00
0.00 0.01 0.02 0.01 0.01 0.01 0.00 0.00 0.00 0.00 0.01 0.00 0.00 0.01 0.00 0.01 0.01 0.01 0.00 0.00 0.00 0.00 0.01 0.01 0.01 0.02 0.03 0.02 0.02 0.01 0.00 0.00 0.00 0.00 0.00 0.00 0.00 0.00 0.00 0.00 0.00 0.00 0.00 0.01 0.01 0.00 0.00 0.00 0.00
0.00 0.00 0.00 0.00 0.00 0.01 0.00 0.00 0.00 0.00 0.00 0.00 0.00 0.00 0.00 0.00 0.01 0.00 0.00 0.00 0.00 0.00 0.00 0.00 0.00 0.00 0.01 0.01 0.02 0.01 0.01 0.00 0.00 0.00 0.00 0.00 0.00 0.00 0.00 0.00 0.00 0.00 0.00 0.00 0.00 0.00 0.00 0.00 0.00
0.00 0.00 0.00 0.00 0.00 0.00 0.00 0.00 0.00 0.00 0.00 0.00 0.00 0.00 0.00 0.00 0.00 0.00 0.00 0.00 0.00 0.00 0.00 0.00 0.00 0.00 0.00 0.00 0.01 0.01 0.01 0.01 0.01 0.00 0.00 0.00 0.00 0.00 0.00 0.00 0.00 0.00 0.00 0.00 0.00 0.00 0.00 0.00 0.00
0.00 0.00 0.00 0.00 0.00 0.00 0.00 0.00 0.00 0.00 0.00 0.00 0.00 0.00 0.00 0.00 0.00 0.00 0.00 0.00 0.00 0.00 0.00 0.00 0.00 0.00 0.00 0.00 0.00 0.00 0.00 0.01 0.01 0.01 0.00 0.00 0.00 0.00 0.00 0.00 0.00 0.00 0.00 0.00 0.00 0.00 0.00 0.00 0.00
0.00 0.00 0.00 0.01 0.01 0.00 0.00 0.00 0.00 0.00 0.00 0.00 0.00 0.00 0.00 0.00 0.00 0.00 0.00 0.00 0.00 0.00 0.00 0.00 0.00 0.00 0.00 0.00 0.00 0.00 0.00 0.00 0.00 0.01 0.01 0.00 0.00 0.00 0.00 0.00 0.00 0.00 0.00 0.00 0.00 0.00 0.00 0.00 0.00
MSLP
1014.15 1014.23 1014.29 1014.24 1014.03 1013.59 1012.93 1012.07 1011.11 1010.12 1009.20 1008.45 1007.89 1007.54 1007.37 1007.33 1007.37 1007.44 1007.53 1007.65 1007.81 1008.07 1008.45 1008.96 1009.58 1010.27 1010.97 1011.62 1012.18 1012.63 1012.99 1013.28 1013.56 1013.85 1014.19 1014.57 1014.98 1015.37 1015.72 1015.99 1016.19 1016.32 1016.41 1016.50 1016.61 1016.75 1016.91 1017.08 1017.22
1014.36 1014.47 1014.52 1014.43 1014.14 1013.60 1012.81 1011.85 1010.77 1009.71 1008.76 1008.01 1007.48 1007.18 1007.06 1007.07 1007.15 1007.24 1007.34 1007.46 1007.63 1007.90 1008.30 1008.85 1009.51 1010.25 1010.99 1011.68 1012.27 1012.75 1013.12 1013.43 1013.71 1014.02 1014.36 1014.75 1015.15 1015.54 1015.87 1016.14 1016.32 1016.45 1016.54 1016.63 1016.76 1016.91 1017.10 1017.28 1017.43
1014.60 1014.73 1014.78 1014.67 1014.33 1013.73 1012.88 1011.85 1010.73 1009.64 1008.69 1007.94 1007.43 1007.15 1007.06 1007.08 1007.15 1007.23 1007.31 1007.41 1007.57 1007.84 1008.25 1008.81 1009.51 1010.28 1011.05 1011.78 1012.39 1012.89 1013.28 1013.59 1013.88 1014.18 1014.52 1014.89 1015.28 1015.66 1015.98 1016.23 1016.41 1016.54 1016.64 1016.75 1016.88 1017.06 1017.25 1017.44 1017.59
1014.87 1015.03 1015.09 1014.98 1014.63 1014.01 1013.15 1012.12 1011.00 1009.92 1008.99 1008.25 1007.75 1007.47 1007.35 1007.34 1007.38 1007.41 1007.45 1007.51 1007.65 1007.90 1008.31 1008.88 1009.59 1010.38 1011.17 1011.91 1012.55 1013.06 1013.45 1013.77 1014.06 1014.35 1014.67 1015.03 1015.41 1015.76 1016.08 1016.33 1016.51 1016.65 1016.76 1016.88 1017.03 1017.21 1017.40 1017.59 1017.73
1015.18 1015.35 1015.42 1015.32 1014.99 1014.40 1013.58 1012.59 1011.52 1010.49 1009.58 1008.86 1008.35 1008.04 1007.88 1007.81 1007.77 1007.75 1007.72 1007.74 1007.84 1008.08 1008.48 1009.04 1009.75 1010.53 1011.33 1012.07 1012.71 1013.23 1013.63 1013.96 1014.24 1014.53 1014.84 1015.19 1015.54 1015.89 1016.20 1016.46 1016.65 1016.81 1016.94 1017.07 1017.22 1017.40 1017.58 1017.74 1017.86
1015.47 1015.65 1015.73 1015.65 1015.36 1014.83 1014.08 1013.16 1012.17 1011.20 1010.33 1009.63 1009.11 1008.75 1008.52 1008.37 1008.26 1008.16 1008.08 1008.06 1008.13 1008.34 1008.72 1009.26 1009.95 1010.72 1011.50 1012.23 1012.87 1013.39 1013.80 1014.13 1014.43 1014.72 1015.03 1015.36 1015.71 1016.05 1016.36 1016.62 1016.83 1017.01 1017.16 1017.30 1017.45 1017.61 1017.76 1017.89 1017.97
1015.72 1015.87 1015.96 1015.90 1015.65 1015.18 1014.52 1013.70 1012.80 1011.91 1011.09 1010.40 1009.86 1009.45 1009.16 1008.93 1008.75 1008.59 1008.46 1008.40 1008.45 1008.64 1008.99 1009.51 1010.16 1010.89 1011.63 1012.35 1012.97 1013.50 1013.93 1014.28 1014.60 1014.90 1015.22 1015.55 1015.89 1016.23 1016.54 1016.81 1017.04 1017.23 1017.39 1017.54 1017.68 1017.81 1017.92 1018.00 1018.04
1015.86 1015.98 1016.04 1015.99 1015.77 1015.37 1014.80 1014.08 1013.29 1012.47 1011.71 1011.04 1010.48 1010.04 1009.69 1009.41 1009.18 1008.98 1008.83 1008.76 1008.79 1008.95 1009.27 1009.74 1010.34 1011.01 1011.71 1012.39 1013.00 1013.54 1013.99 1014.38 1014.73 1015.07 1015.40 1015.75 1016.09 1016.42 1016.72 1016.99 1017.23 1017.43 1017.59 1017.74 1017.86 1017.96 1018.03 1018.07 1018.07
1015.86 1015.92 1015.94 1015.87 1015.68 1015.34 1014.85 1014.23 1013.53 1012.81 1012.11 1011.47 1010.92 1010.47 1010.10 1009.79 1009.55 1009.35 1009.20 1009.13 1009.15 1009.29 1009.57 1009.97 1010.49 1011.09 1011.72 1012.35 1012.95 1013.49 1013.98 1014.42 1014.82 1015.20 1015.56 1015.92 1016.26 1016.58 1016.87 1017.13 1017.36 1017.55 1017.72 1017.85 1017.96 1018.04 1018.07 1018.07 1018.03
1015.71 1015.69 1015.65 1015.55 1015.36 1015.06 1014.64 1014.12 1013.53 1012.90 1012.27 1011.69 1011.18 1010.75 1010.40 1010.11 1009.89 1009.72 1009.60 1009.55 1009.57 1009.69 1009.91 1010.24 1010.66 1011.15 1011.70 1012.27 1012.83 1013.38 1013.91 1014.40 1014.86 1015.28 1015.69 1016.06 1016.40 1016.70 1016.98 1017.21 1017.42 1017.60 1017.76 1017.88 1017.98 1018.04 1018.05 1018.03 1017.97
1015.44 1015.32 1015.21 1015.06 1014.86 1014.59 1014.24 1013.81 1013.31 1012.78 1012.25 1011.76 1011.32 1010.95 1010.65 1010.43 1010.26 1010.15 1010.09 1010.07 1010.10 1010.19 1010.35 1010.58 1010.89 1011.26 1011.70 1012.19 1012.71 1013.25 1013.80 1014.34 1014.85 1015.33 1015.77 1016.16 1016.50 1016.78 1017.03 1017.24 1017.42 1017.58 1017.73 1017.85 1017.94 1017.99 1018.00 1017.97 1017.90
1015.11 1014.89 1014.69 1014.49 1014.27 1014.01 1013.71 1013.36 1012.97 1012.56 1012.14 1011.75 1011.41 1011.13 1010.93 1010.79 1010.72 1010.69 1010.70 1010.73 1010.77 1010.84 1010.92 1011.05 1011.23 1011.48 1011.80 1012.19 1012.64 1013.16 1013.71 1014.27 1014.83 1015.35 1015.83 1016.23 1016.57 1016.84 1017.06 1017.24 1017.40 1017.54 1017.67 1017.79 1017.88 1017.94 1017.96 1017.94 1017.87
1014.79 1014.47 1014.19 1013.93 1013.68 1013.44 1013.19 1012.91 1012.62 1012.32 1012.03 1011.75 1011.53 1011.37 1011.28 1011.25 1011.29 1011.36 1011.44 1011.52 1011.59 1011.63 1011.66 1011.69 1011.75 1011.86 1012.05 1012.32 1012.70 1013.16 1013.69 1014.26 1014.84 1015.39 1015.88 1016.29 1016.63 1016.89 1017.10 1017.26 1017.39 1017.52 1017.65 1017.77 1017.88 1017.95 1017.98 1017.97 1017.93
1014.54 1014.15 1013.80 1013.48 1013.21 1012.97 1012.75 1012.55 1012.35 1012.15 1011.97 1011.82 1011.72 1011.67 1011.70 1011.79 1011.93 1012.11 1012.27 1012.41 1012.50 1012.54 1012.52 1012.48 1012.43 1012.42 1012.49 1012.65 1012.93 1013.32 1013.80 1014.35 1014.91 1015.46 1015.95 1016.37 1016.71 1016.97 1017.17 1017.32 1017.45 1017.58 1017.71 1017.83 1017.95 1018.04 1018.10 1018.11 1018.07
1014.43 1013.99 1013.57 1013.22 1012.92 1012.68 1012.49 1012.34 1012.21 1012.10 1012.01 1011.96 1011.96 1012.02 1012.15 1012.34 1012.58 1012.84 1013.09 1013.29 1013.42 1013.47 1013.44 1013.35 1013.24 1013.14 1013.11 1013.17 1013.35 1013.65 1014.06 1014.54 1015.07 1015.59 1016.07 1016.48 1016.82 1017.09 1017.29 1017.45 1017.59 1017.72 1017.85 1017.99 1018.11 1018.22 1018.29 1018.32 1018.30
1014.45 1013.98 1013.54 1013.15 1012.83 1012.59 1012.41 1012.28 1012.19 1012.14 1012.12 1012.14 1012.21 1012.35 1012.55 1012.82 1013.13 1013.47 1013.78 1014.05 1014.23 1014.32 1014.32 1014.23 1014.10 1013.96 1013.86 1013.84 1013.93 1014.14 1014.46 1014.86 1015.31 1015.78 1016.23 1016.63 1016.97 1017.24 1017.46 1017.63 1017.79 1017.93 1018.07 1018.21 1018.35 1018.46 1018.54 1018.58 1018.57
1014.59 1014.11 1013.66 1013.25 1012.92 1012.66 1012.47 1012.35 1012.27 1012.23 1012.24 1012.30 1012.40 1012.58 1012.82 1013.14 1013.50 1013.88 1014.26 1014.59 1014.84 1014.99 1015.04 1015.00 1014.90 1014.77 1014.66 1014.60 1014.62 1014.75 1014.96 1015.27 1015.63 1016.03 1016.42 1016.79 1017.12 1017.41 1017.65 1017.85 1018.03 1018.19 1018.34 1018.48 1018.61 1018.72 1018.80 1018.84 1018.84
1014.79 1014.33 1013.88 1013.47 1013.12 1012.84 1012.63 1012.47 1012.37 1012.32 1012.31 1012.36 1012.47 1012.65 1012.91 1013.23 1013.62 1014.03 1014.45 1014.84 1015.16 1015.40 1015.54 1015.59 1015.57 1015.50 1015.42 1015.35 1015.34 1015.40 1015.53 1015.74 1016.00 1016.31 1016.64 1016.97 1017.28 1017.57 1017.83 1018.06 1018.27 1018.44 1018.60 1018.74 1018.86 1018.96 1019.03 1019.08 1019.09
1015.00 1014.58 1014.15 1013.75 1013.39 1013.07 1012.81 1012.60 1012.44 1012.34 1012.29 1012.30 1012.38 1012.54 1012.79 1013.11 1013.50 1013.93 1014.38 1014.81 1015.20 1015.53 1015.78 1015.94 1016.03 1016.05 1016.05 1016.02 1016.01 1016.03 1016.09 1016.21 1016.38 1016.59 1016.85 1017.13 1017.42 1017.71 1017.99 1018.25 1018.47 1018.67 1018.83 1018.96 1019.07 1019.16 1019.23 1019.27 1019.30
1015.18 1014.81 1014.42 1014.03 1013.66 1013.30 1012.98 1012.69 1012.45 1012.27 1012.15 1012.11 1012.15 1012.28 1012.50 1012.81 1013.19 1013.62 1014.09 1014.55 1015.00 1015.41 1015.76 1016.04 1016.25 1016.40 1016.49 1016.54 1016.56 1016.57 1016.59 1016.64 1016.72 1016.86 1017.04 1017.27 1017.54 1017.82 1018.11 1018.38 1018.63 1018.84 1019.01 1019.14 1019.24 1019.32 1019.38 1019.43 1019.47
1015.31 1015.01 1014.67 1014.30 1013.91 1013.51 1013.11 1012.74 1012.40 1012.12 1011.93 1011.82 1011.82 1011.92 1012.13 1012.42 1012.79 1013.22 1013.68 1014.17 1014.65 1015.11 1015.54 1015.93 1016.25 1016.52 1016.71 1016.85 1016.93 1016.96 1016.97 1016.98 1017.01 1017.08 1017.20 1017.38 1017.62 1017.89 1018.18 1018.47 1018.74 1018.96 1019.14 1019.28 1019.38 1019.45 1019.51 1019.58 1019.64
1015.41 1015.19 1014.91 1014.56 1014.16 1013.71 1013.23 1012.76 1012.32 1011.95 1011.68 1011.52 1011.48 1011.56 1011.76 1012.05 1012.41 1012.83 1013.29 1013.76 1014.25 1014.73 1015.21 1015.66 1016.07 1016.43 1016.73 1016.95 1017.10 1017.18 1017.20 1017.20 1017.20 1017.23 1017.31 1017.45 1017.66 1017.92 1018.22 1018.52 1018.80 1019.05 1019.24 1019.39 1019.49 1019.58 1019.65 1019.73 1019.81
1015.52 1015.39 1015.17 1014.85 1014.44 1013.94 1013.38 1012.82 1012.28 1011.82 1011.48 1011.27 1011.21 1011.29 1011.49 1011.78 1012.15 1012.55 1012.98 1013.43 1013.89 1014.36 1014.83 1015.30 1015.76 1016.18 1016.55 1016.86 1017.07 1017.21 1017.28 1017.29 1017.29 1017.31 1017.36 1017.48 1017.67 1017.92 1018.22 1018.53 1018.83 1019.09 1019.31 1019.47 1019.60 1019.70 1019.79 1019.88 1019.99
1015.70 1015.65 1015.49 1015.21 1014.78 1014.24 1013.61 1012.95 1012.32 1011.79 1011.38 1011.14 1011.07 1011.15 1011.36 1011.67 1012.03 1012.42 1012.82 1013.23 1013.63 1014.05 1014.48 1014.93 1015.39 1015.83 1016.24 1016.60 1016.88 1017.08 1017.19 1017.25 1017.27 1017.29 1017.34 1017.45 1017.63 1017.88 1018.17 1018.49 1018.80 1019.08 1019.33 1019.52 1019.67 1019.79 1019.91 1020.02 1020.14
1015.94 1015.98 1015.89 1015.63 1015.20 1014.62 1013.93 1013.19 1012.49 1011.88 1011.42 1011.15 1011.07 1011.15 1011.38 1011.70 1012.06 1012.44 1012.80 1013.15 1013.48 1013.83 1014.19 1014.57 1014.99 1015.42 1015.84 1016.23 1016.55 1016.80 1016.97 1017.07 1017.13 1017.18 1017.24 1017.36 1017.53 1017.77 1018.07 1018.39 1018.71 1019.01 1019.28 1019.50 1019.68 1019.83 1019.97 1020.09 1020.22
1016.25 1016.36 1016.32 1016.09 1015.66 1015.05 1014.32 1013.53 1012.75 1012.09 1011.59 1011.29 1011.19 1011.28 1011.51 1011.84 1012.20 1012.55 1012.87 1013.16 1013.42 1013.68 1013.95 1014.26 1014.61 1015.00 1015.40 1015.79 1016.14 1016.42 1016.64 1016.79 1016.89 1016.97 1017.06 1017.19 1017.37 1017.60 1017.89 1018.20 1018.53 1018.84 1019.13 1019.37 1019.58 1019.76 1019.91 1020.06 1020.19
1016.57 1016.74 1016.74 1016.54 1016.11 1015.49 1014.72 1013.89 1013.08 1012.37 1011.84 1011.51 1011.40 1011.48 1011.70 1012.02 1012.36 1012.69 1012.98 1013.21 1013.40 1013.59 1013.78 1014.00 1014.29 1014.61 1014.98 1015.34 1015.69 1016.00 1016.25 1016.44 1016.58 1016.69 1016.81 1016.95 1017.13 1017.35 1017.63 1017.93 1018.25 1018.56 1018.85 1019.11 1019.34 1019.54 1019.71 1019.87 1020.01
1016.83 1017.03 1017.06 1016.86 1016.44 1015.82 1015.05 1014.21 1013.38 1012.65 1012.10 1011.75 1011.61 1011.67 1011.88 1012.17 1012.49 1012.80 1013.05 1013.25 1013.39 1013.52 1013.65 1013.81 1014.02 1014.29 1014.61 1014.94 1015.28 1015.58 1015.84 1016.06 1016.23 1016.37 1016.50 1016.65 1016.82 1017.04 1017.29 1017.58 1017.87 1018.17 1018.45 1018.71 1018.95 1019.16 1019.35 1019.52 1019.66
1016.94 1017.15 1017.17 1016.97 1016.56 1015.95 1015.19 1014.37 1013.55 1012.83 1012.28 1011.92 1011.76 1011.80 1011.98 1012.24 1012.54 1012.83 1013.06 1013.23 1013.36 1013.46 1013.55 1013.68 1013.84 1014.07 1014.33 1014.63 1014.93 1015.22 1015.47 1015.69 1015.87 1016.02 1016.16 1016.31 1016.48 1016.67 1016.90 1017.15 1017.41 1017.68 1017.94 1018.19 1018.42 1018.63 1018.83 1019.02 1019.18
1016.87 1017.03 1017.01 1016.80 1016.39 1015.80 1015.08 1014.30 1013.53 1012.85 1012.32 1011.97 1011.82 1011.83 1011.98 1012.22 1012.50 1012.76 1012.99 1013.17 1013.30 1013.40 1013.50 1013.61 1013.76 1013.95 1014.17 1014.43 1014.69 1014.94 1015.17 1015.37 1015.54 1015.69 1015.83 1015.97 1016.12 1016.29 1016.48 1016.69 1016.91 1017.13 1017.36 1017.58 1017.80 1018.02 1018.22 1018.42 1018.60
Thickness
5700 5704 5706 5699 5684 5678 5687 5706 5717 5721 5724 5730 5732 5734 5728 5722 5716 5707 5725 5737 5736 5733 5729 5727 5727 5727 5727 5727 5727 5727 5726 5726 5726 5725 5725 5724 5724 5724 5724 5724 5723 5723 5723 5723 5723 5723 5723 5722 5722
5693 5698 5694 5684 5671 5668 5684 5701 5706 5710 5718 5724 5726 5726 5723 5715 5718 5718 5723 5728 5730 5727 5724 5722 5722 5722 5722 5722 5722 5722 5722 5721 5721 5721 5720 5720 5720 5720 5720 5720 5720 5719 5719 5719 5719 5719 5719 5719 5719
5687 5689 5678 5671 5668 5669 5680 5696 5700 5705 5713 5714 5713 5716 5712 5707 5712 5713 5718 5723 5724 5722 5719 5717 5717 5717 5717 5717 5718 5718 5717 5717 5716 5716 5716 5716 5716 5716 5716 5716 5716 5715 5715 5715 5715 5715 5715 5715 5715
5680 5674 5669 5660 5662 5675 5681 5688 5693 5693 5700 5706 5705 5699 5701 5705 5709 5710 5714 5716 5716 5715 5713 5712 5712 5712 5712 5712 5713 5713 5712 5712 5711 5711 5711 5711 5711 5711 5712 5711 5711 5711 5711 5711 5711 5711 5711 5711 5711
5672 5663 5654 5652 5661 5672 5679 5684 5685 5681 5684 5693 5695 5689 5686 5696 5703 5705 5706 5708 5709 5708 5706 5705 5706 5706 5706 5706 5707 5707 5707 5707 5706 5706 5706 5706 5706 5706 5707 5707 5707 5707 5707 5707 5707 5707 5707 5707 5707
5658 5655 5644 5645 5658 5668 5672 5677 5676 5676 5678 5685 5686 5681 5678 5688 5692 5695 5698 5700 5702 5701 5700 5698 5699 5700 5700 5700 5701 5701 5701 5701 5701 5701 5701 5702 5702 5702 5702 5702 5702 5702 5703 5703 5703 5703 5703 5703 5704
5647 5644 5641 5647 5651 5657 5663 5670 5666 5666 5668 5674 5680 5674 5672 5679 5684 5688 5690 5692 5694 5693 5692 5691 5692 5693 5694 5694 5695 5695 5695 5696 5696 5696 5696 5697 5697 5697 5697 5697 5697 5698 5698 5698 5699 5699 5699 5700 5700
5646 5638 5639 5642 5644 5649 5657 5661 5662 5659 5662 5672 5674 5667 5663 5671 5678 5680 5681 5683 5685 5685 5686 5686 5686 5686 5687 5688 5689 5690 5690 5690 5691 5691 5692 5692 5692 5692 5692 5693 5693 5693 5693 5694 5694 5695 5695 5696 5696
5641 5627 5628 5635 5638 5643 5649 5648 5653 5658 5657 5660 5663 5663 5666 5668 5669 5669 5670 5671 5674 5676 5678 5679 5681 5680 5681 5683 5683 5685 5685 5686 5686 5686 5687 5687 5688 5688 5688 5688 5688 5689 5689 5689 5690 5691 5691 5692 5692
5629 5619 5628 5636 5637 5636 5639 5640 5643 5645 5645 5648 5652 5656 5659 5659 5660 5660 5660 5661 5664 5666 5670 5673 5675 5675 5676 5678 5678 5679 5680 5680 5681 5681 5682 5683 5683 5684 5684 5684 5684 5684 5685 5685 5686 5686 5687 5688 5688
5626 5622 5629 5632 5633 5632 5632 5634 5639 5637 5635 5642 5644 5646 5650 5651 5652 5653 5654 5655 5658 5660 5663 5667 5669 5670 5670 5671 5672 5673 5674 5674 5675 5676 5677 5678 5678 5679 5679 5679 5679 5679 5680 5681 5681 5682 5683 5684 5685
5623 5623 5626 5626 5626 5626 5627 5630 5631 5633 5636 5644 5645 5646 5645 5645 5646 5647 5648 5650 5652 5654 5655 5658 5662 5663 5663 5664 5665 5666 5667 5668 5669 5670 5671 5672 5673 5674 5674 5674 5674 5675 5675 5676 5677 5678 5679 5680 5681
5617 5619 5621 5621 5621 5622 5624 5624 5625 5629 5635 5640 5641 5641 5640 5640 5641 5643 5644 5645 5647 5648 5649 5650 5654 5655 5656 5656 5658 5660 5661 5662 5662 5663 5664 5666 5667 5668 5669 5669 5669 5669 5670 5671 5672 5673 5674 5675 5677
5616 5615 5616 5617 5617 5619 5617 5619 5621 5626 5632 5634 5634 5634 5635 5637 5638 5638 5639 5640 5640 5641 5643 5646 5647 5647 5649 5649 5651 5653 5654 5655 5655 5656 5657 5659 5660 5661 5662 5663 5663 5663 5664 5666 5667 5668 5669 5670 5671
5614 5609 5611 5614 5614 5615 5613 5611 5618 5625 5628 5628 5629 5630 5631 5633 5634 5634 5635 5635 5636 5636 5638 5640 5641 5641 5642 5643 5645 5647 5647 5648 5648 5649 5650 5652 5653 5654 5655 5656 5657 5657 5658 5659 5661 5662 5662 5664 5665
5610 5605 5602 5612 5613 5612 5605 5603 5619 5623 5623 5622 5624 5626 5627 5629 5630 5631 5631 5631 5631 5631 5632 5633 5635 5634 5636 5637 5638 5640 5640 5640 5641 5642 5643 5644 5645 5646 5648 5649 5649 5650 5651 5652 5653 5654 5654 5655 5656
5601 5596 5600 5607 5613 5610 5604 5604 5616 5622 5621 5619 5621 5622 5623 5624 5625 5626 5626 5626 5625 5625 5626 5627 5629 5628 5628 5629 5630 5632 5632 5633 5634 5634 5635 5636 5637 5639 5640 5641 5641 5643 5644 5645 5646 5646 5647 5647 5648
5592 5595 5599 5601 5607 5605 5601 5604 5612 5617 5618 5616 5618 5618 5619 5619 5620 5621 5622 5622 5621 5620 5621 5621 5622 5622 5623 5623 5623 5624 5625 5626 5626 5627 5627 5628 5629 5630 5631 5632 5633 5634 5636 5636 5637 5638 5639 5639 5640
5596 5594 5593 5600 5604 5600 5599 5603 5609 5614 5613 5613 5613 5613 5614 5615 5616 5616 5616 5616 5615 5615 5615 5615 5615 5616 5616 5615 5616 5616 5616 5617 5618 5619 5619 5620 5620 5621 5623 5624 5625 5626 5627 5627 5628 5630 5630 5630 5631
5594 5591 5592 5597 5601 5597 5596 5601 5610 5612 5611 5611 5611 5611 5612 5611 5611 5611 5611 5610 5610 5610 5610 5611 5610 5610 5610 5610 5611 5611 5610 5610 5611 5611 5611 5611 5612 5613 5615 5616 5617 5618 5619 5619 5619 5620 5620 5620 5620
5592 5588 5588 5588 5592 5596 5593 5596 5606 5610 5612 5611 5611 5611 5611 5609 5607 5607 5607 5606 5605 5605 5605 5606 5606 5605 5605 5605 5604 5604 5603 5602 5602 5601 5602 5603 5604 5605 5606 5607 5609 5610 5610 5610 5610 5610 5610 5609 5610
5584 5589 5587 5585 5579 5580 5589 5581 5603 5607 5606 5606 5606 5606 5606 5606 5605 5604 5604 5603 5602 5602 5602 5602 5601 5600 5599 5599 5598 5597 5595 5594 5594 5594 5594 5595 5595 5596 5597 5599 5600 5600 5601 5600 5601 5601 5600 5600 5599
5582 5585 5583 5581 5578 5575 5587 5581 5593 5605 5601 5601 5603 5603 5603 5603 5603 5602 5601 5600 5599 5599 5598 5597 5596 5595 5594 5593 5592 5591 5589 5589 5588 5587 5587 5587 5587 5588 5589 5590 5590 5591 5591 5591 5591 5590 5590 5590 5589
5580 5579 5580 5577 5571 5567 5586 5582 5589 5598 5603 5602 5601 5601 5600 5600 5600 5598 5597 5596 5594 5593 5593 5591 5590 5589 5587 5587 5586 5584 5583 5582 5581 5580 5579 5579 5579 5580 5580 5581 5581 5581 5581 5581 5581 5581 5580 5579 5579
5573 5567 5563 5563 5563 5573 5592 5585 5591 5606 5609 5605 5600 5598 5597 5596 5595 5593 5592 5590 5589 5588 5587 5586 5585 5583 5581 5580 5578 5578 5577 5575 5574 5573 5572 5571 5570 5571 5571 5572 5572 5571 5571 5571 5571 5570 5570 5569 5568
5569 5568 5557 5556 5563 5574 5583 5581 5594 5606 5604 5602 5598 5595 5592 5591 5590 5589 5587 5585 5584 5583 5581 5580 5578 5577 5575 5574 5572 5571 5569 5568 5566 5565 5564 5563 5562 5562 5563 5563 5562 5562 5562 5561 5561 5560 5559 5558 5557
5565 5562 5566 5557 5559 5558 5575 5591 5594 5599 5595 5594 5591 5589 5587 5585 5584 5583 5582 5580 5578 5576 5574 5573 5572 5570 5568 5567 5565 5563 5561 5560 5559 5558 5556 5555 5554 5554 5554 5553 5553 5552 5551 5551 5550 5549 5548 5547 5546
5559 5561 5553 5549 5547 5554 5575 5585 5584 5586 5587 5587 5584 5582 5581 5580 5578 5577 5575 5573 5571 5569 5567 5566 5564 5562 5561 5558 5556 5554 5553 5552 5550 5549 5547 5546 5545 5544 5544 5543 5542 5542 5541 5540 5540 5538 5537 5536 5536
5549 5550 5550 5548 5551 5546 5553 5570 5589 5588 5586 5582 5580 5578 5576 5574 5572 5570 5567 5566 5564 5561 5559 5557 5555 5553 5551 5549 5547 5545 5544 5543 5541 5540 5539 5537 5536 5535 5534 5533 5532 5531 5530 5530 5528 5527 5526 5525 5524
5551 5551 5545 5535 5540 5545 5543 5557 5585 5583 5581 5578 5574 5572 5570 5568 5566 5563 5560 5558 5555 5553 5551 5549 5547 5544 5542 5540 5538 5536 5534 5533 5531 5530 5529 5528 5526 5525 5524 5523 5522 5521 5520 5519 5517 5516 5515 5513 5512